Location: Central Falls
(41.8900°N, 71.3929°W)
Time: 14:33:17
(UTC+00:00)

Tiros 1 despin weight - All Passes

Search period start: 03 December 2023 00:00
Search period end: 13 December 2023 00:00
Orbit: 583 x 628 km, 48.2° (Epoch: 28 November)

Date Brightness Start Highest point End Pass type
(mag) Time Alt. Az. Time Alt. Az. Time Alt. Az.
03 Dec - 00:58:15 10° W 01:02:29 49° NNW 01:06:44 10° ENE visible
03 Dec - 02:40:18 10° WNW 02:44:20 35° N 02:48:23 10° ENE night (unlit)
03 Dec - 04:21:44 10° WNW 04:26:05 65° NNE 04:30:28 10° ESE night (unlit)
03 Dec - 06:03:15 10° WNW 06:07:09 31° SW 06:11:05 10° SSE night (unlit)
03 Dec - 21:49:50 10° S 21:52:41 17° SE 21:55:31 10° E visible
03 Dec - 23:29:05 10° WSW 23:33:25 82° SSE 23:37:47 10° ENE visible
04 Dec - 01:10:52 10° W 01:14:58 39° N 01:19:05 10° ENE visible
04 Dec - 02:52:46 10° WNW 02:56:52 39° N 03:01:00 10° E night (unlit)
04 Dec - 04:34:03 10° WNW 04:38:25 84° SSW 04:42:50 10° ESE night (unlit)
04 Dec - 06:16:14 10° W 06:19:12 18° SW 06:22:11 10° S night (unlit)
04 Dec - 22:00:54 10° SSW 22:04:43 30° SE 22:08:32 10° ENE visible
04 Dec - 23:41:25 10° WSW 23:45:46 66° NNW 23:50:05 10° ENE visible
05 Dec - 01:23:28 10° WNW 01:27:30 35° N 01:31:32 10° ENE visible
05 Dec - 03:05:07 10° WNW 03:09:21 49° NNE 03:13:36 10° E night (unlit)
05 Dec - 04:46:25 10° WNW 04:50:39 51° SW 04:54:56 10° SE night (unlit)
05 Dec - 22:12:36 10° SW 22:16:51 53° SE 22:21:05 10° ENE visible
05 Dec - 23:53:57 10° W 23:58:10 47° NNW 00:02:23 10° ENE visible
06 Dec - 01:36:00 10° WNW 01:40:01 36° N 01:44:04 10° ENE night (unlit)
06 Dec - 03:17:24 10° WNW 03:21:45 68° NNE 03:26:07 10° ESE night (unlit)
06 Dec - 04:58:59 10° W 05:02:46 29° SW 05:06:35 10° SSE night (unlit)
06 Dec - 20:45:14 10° S 20:48:16 18° SE 20:51:18 10° E daylight
06 Dec - 22:24:41 10° WSW 22:29:04 87° SSE 22:33:25 10° ENE visible
07 Dec - 00:06:32 10° W 00:10:37 39° N 00:14:43 10° ENE visible
07 Dec - 01:48:24 10° WNW 01:52:31 40° N 01:56:39 10° E night (unlit)
07 Dec - 03:29:40 10° WNW 03:34:03 79° SSW 03:38:25 10° SE night (unlit)
07 Dec - 05:12:01 10° W 05:14:46 16° SW 05:17:33 10° S night (unlit)
07 Dec - 20:56:22 10° SSW 21:00:17 32° SE 21:04:11 10° ENE daylight
07 Dec - 22:37:02 10° WSW 22:41:22 63° NNW 22:45:41 10° ENE visible
08 Dec - 00:19:06 10° WNW 00:23:07 35° N 00:27:08 10° ENE visible
08 Dec - 02:00:43 10° WNW 02:04:57 50° NNE 02:09:13 10° E night (unlit)
08 Dec - 03:42:02 10° WNW 03:46:14 47° SW 03:50:26 10° SE night (unlit)
08 Dec - 19:30:56 10° SE 19:31:51 11° SE 19:32:46 10° ESE daylight
08 Dec - 21:08:06 10° SW 21:12:23 56° SSE 21:16:40 10° ENE daylight
08 Dec - 22:49:31 10° W 22:53:45 46° NNW 22:57:57 10° ENE visible
09 Dec - 00:31:35 10° WNW 00:35:37 36° N 00:39:39 10° ENE visible
09 Dec - 02:12:57 10° WNW 02:17:18 71° NNE 02:21:40 10° ESE night (unlit)
09 Dec - 03:54:36 10° W 03:58:18 27° SW 04:02:00 10° SSE night (unlit)
09 Dec - 19:40:33 10° S 19:43:46 20° SE 19:46:58 10° E daylight
09 Dec - 21:20:12 10° WSW 21:24:35 89° NNW 21:28:58 10° ENE daylight
09 Dec - 23:02:05 10° WNW 23:06:11 38° N 23:10:16 10° ENE visible
10 Dec - 00:43:56 10° WNW 00:48:04 41° NNE 00:52:12 10° E visible
10 Dec - 02:25:13 10° WNW 02:29:34 75° SSW 02:33:55 10° SE night (unlit)
10 Dec - 04:07:43 10° W 04:10:14 15° SW 04:12:46 10° S night (unlit)
10 Dec - 19:51:45 10° SSW 19:55:45 35° SE 19:59:44 10° ENE daylight
10 Dec - 21:32:32 10° WSW 21:36:52 60° NNW 21:41:11 10° ENE daylight
10 Dec - 23:14:37 10° WNW 23:18:38 35° N 23:22:40 10° ENE visible
11 Dec - 00:56:12 10° WNW 01:00:28 52° NNE 01:04:44 10° E visible
11 Dec - 02:37:33 10° WNW 02:41:42 44° SW 02:45:50 10° SE night (unlit)
11 Dec - 18:25:43 10° SSE 18:27:16 12° SE 18:28:48 10° ESE daylight
11 Dec - 20:03:30 10° SW 20:07:51 60° SE 20:12:09 10° ENE daylight
11 Dec - 21:45:01 10° W 21:49:14 45° NNW 21:53:25 10° ENE visible
11 Dec - 23:27:03 10° WNW 23:31:06 36° N 23:35:09 10° ENE visible
12 Dec - 01:08:25 10° WNW 01:12:46 75° NNE 01:17:08 10° ESE visible
12 Dec - 02:50:08 10° W 02:53:43 25° SW 02:57:18 10° SSE night (unlit)
12 Dec - 18:35:47 10° S 18:39:09 22° SE 18:42:31 10° E daylight
12 Dec - 20:15:36 10° WSW 20:20:01 85° NNW 20:24:24 10° ENE daylight
12 Dec - 21:57:32 10° WNW 22:01:38 37° N 22:05:43 10° ENE visible
12 Dec - 23:39:22 10° WNW 23:43:31 42° NNE 23:47:40 10° E visible
